Skip Page Navigation
NASA JPL Caltech
NASA Logo - Jet Propulsion Laboratory + View the NASA Portal
+ Center for Near-Earth Object Studies
JPL Home Earth Solar System Stars & Galaxies Technology
JPL Solar System Dynamics
BODIES ORBITS EPHEMERIDES TOOLS PHYSICAL DATA DISCOVERY FAQ SITE MAP

Significant website upgrade scheduled for September 27. More details available here.

JPL Small-Body Database Browser
Search: [ help ]  
67472 (2000 RD6)
Classification: Main-belt Asteroid          SPK-ID: 2067472
Ephemeris | Orbit Diagram | Orbital Elements | Mission Design | Physical Parameters | Discovery Circumstances ]

[ hide orbit diagram ]

For accurate long-term ephemerides, please instead use our Horizons system.This orbit viewer was implemented using two-body methods, and hence should not be used for determining accurate long-term trajectories (over several years or decades) or planetary encounter circumstances.


Orbital Elements at Epoch 2459396.5 (2021-Jul-01.0) TDB
Reference: JPL 27 (heliocentric ecliptic J2000)
 Element Value Uncertainty (1-sigma)   Units 
e .1137548773680482 3.0191e-08  
a 2.250792906496379 6.2256e-09 au
q 1.994754235437011 6.9854e-08 au
i 4.842675176425239 3.849e-06 deg
node 17.09072653799189 3.5397e-05 deg
peri 26.41928467328606 3.9314e-05 deg
M 36.9063666170906 1.6589e-05 deg
tp 2459270.055330864961
(2021-Feb-24.55533087)
5.6763e-05 TDB
period 1233.393722034247
3.38
5.1173e-06
1.401e-08
d
yr
n .2918776004520672 1.211e-09 deg/d
Q 2.506831577555748 6.9338e-09 au
  Orbit Determination Parameters
   # obs. used (total)      1577  
   data-arc span      7941 days (21.74 yr)  
   first obs. used      1999-05-18  
   last obs. used      2021-02-12  
   planetary ephem.      DE441  
   SB-pert. ephem.      SB441-N16  
   condition code      0  
   norm. resid. RMS      .50292  
   source      ORB  
   producer      Otto Matic  
   solution date      2021-Aug-25 17:44:36  

Additional Information
 Earth MOID = 1.00381 au 
 Jupiter MOID = 2.84391 au 
 T_jup = 3.614 
[ hide covariance matrix ]
Orbital Elements at Epoch 2457483.5 (2016-Apr-05.0) TDB
Reference: JPL 27 (heliocentric ecliptic J2000)
 Element Value Uncertainty (1-sigma)   Units 
e .1148740770156955 3.0271e-08  
q 1.991882717983599 7.0118e-08 au
tp 2458036.005262659598
(2017-Oct-09.50526266)
5.5351e-05 TDB
node 17.17772337809344 3.5371e-05 deg
peri 26.21576465909212 3.9187e-05 deg
i 4.84531473018744 3.8498e-06 deg
  Orbit Determination Parameters
   # obs. used (total)      1577  
   data-arc span      7941 days (21.74 yr)  
   first obs. used      1999-05-18  
   last obs. used      2021-02-12  
   planetary ephem.      DE441  
   SB-pert. ephem.      SB441-N16  
   condition code      0  
   norm. resid. RMS      .50292  
   source      ORB  
   producer      Otto Matic  
   solution date      2021-Aug-25 17:44:36  

Additional Information
 Jupiter MOID = 2.84391 au 
 T_jup = 3.614 
Orbit Covariance (6×6)
  e q tp node peri i
e 9.163329808222842E-16 -2.116588720806254E-15 -5.278849871452232E-13 3.70291319639011E-15 -1.481330721590292E-13 -1.607667694286406E-15
q -2.116588720806254E-15 4.9165948480935E-15 1.202973102103521E-12 -8.761322711991169E-15 3.339752862425195E-13 3.759945075373693E-15
tp -5.278849871452232E-13 1.202973102103521E-12 3.063714965202462E-9 6.285376099645915E-12 9.394803164276467E-10 1.445899750910677E-12
node 3.70291319639011E-15 -8.761322711991169E-15 6.285376099645915E-12 1.251115095435216E-9 -1.244193057120829E-9 -3.591133337259048E-11
peri -1.481330721590292E-13 3.339752862425195E-13 9.394803164276467E-10 -1.244193057120829E-9 1.535609933620736E-9 3.618355522566024E-11
i -1.607667694286406E-15 3.759945075373693E-15 1.445899750910677E-12 -3.591133337259048E-11 3.618355522566024E-11 1.48209567008292E-11

Ephemeris | Orbit Diagram | Orbital Elements | Mission Design | Physical Parameters | Discovery Circumstances ]

Physical Parameter Table
Parameter Symbol Value Units Sigma Reference Notes
absolute magnitude H 15.54   n/a E2021B10  
diameter diameter 1.738 km 0.169 urn:nasa:pds:neowise_diameters_albedos::2.0[mainbelt] (http://adsabs.harvard.edu/abs/2011ApJ...741...68M)  
geometric albedo albedo 0.307   0.030 urn:nasa:pds:neowise_diameters_albedos::2.0[mainbelt] (http://adsabs.harvard.edu/abs/2011ApJ...741...68M)  

67472 (2000 RD6)          Discovered 2000-Sep-01 by LINEAR at Socorro
Reference: 20030910/Numbers.arcLast Updated: 2004-04-19
Ephemeris | Orbit Diagram | Orbital Elements | Mission Design | Physical Parameters | Discovery Circumstances ]
ABOUT SSD CREDITS/AWARDS PRIVACY/COPYRIGHT GLOSSARY LINKS
FirstGov 2021-Sep-20 19:42 UT
(server date/time)  
NASA Home Page
Site Manager:   Ryan S. Park
Webmaster  Alan B. Chamberlin